M I D A S
Marine Information and Data Acquisition System
Tripno 1726 of the Zeeleeuw from 2009-06-29 09:14:50 to 2009-06-30 12:11:42
Back to CruiseResearch ActivitiesStationsMapUnderway DataData graphs

EquipmentUnitsComments
TimeDGPSUTC
LatitudeDGPSDM.mWGS84
LongitudeDGPSDM.mWGS84
SpeedMeteo Stationm/sRelative wind speed
DirectionMeteo StationdegRelative wind direction
TemperatureMeteo Stationdeg CelciusAir temperature
PressureMeteo StationPaAtmospheric pressure
HumidityMeteo Station%Relative humidity
Missing or incorrect values are displayed as -999
Metereological data collected by the RV Zeeleeuw from 2009-06-29 06:19:02 to 2009-06-30 12:38:59
                                                                                    Next 1000 lines
Time Latitude Longitude Speed Direction Temperature Pressure Humidity
2009-06-29 06:19:13 51°13.662 2°55.96 1.4 255 16.1 101760 99
2009-06-29 06:19:18 51°13.662 2°55.959 1.9 254 16.1 101760 99
2009-06-29 06:19:22 51°13.663 2°55.959 1 253 16.1 101760 99
2009-06-29 06:19:28 51°13.663 2°55.959 1.1 253 16.1 101760 99
2009-06-29 06:19:33 51°13.663 2°55.959 1.1 253 16.1 101760 99
2009-06-29 06:19:38 51°13.663 2°55.959 1.4 252 16.1 101760 99
2009-06-29 06:19:42 51°13.663 2°55.959 1.6 246 16.1 101760 99
2009-06-29 06:19:48 51°13.663 2°55.959 1.5 245 16.1 101760 99
2009-06-29 06:19:53 51°13.663 2°55.96 1.3 246 16.1 101760 99
2009-06-29 06:19:58 51°13.663 2°55.96 1.5 246 16.1 101760 99
2009-06-29 06:20:03 51°13.663 2°55.96 1.5 248 16.1 101760 99
2009-06-29 06:20:08 51°13.663 2°55.959 1.3 21 16.1 101760 99
2009-06-29 06:20:13 51°13.662 2°55.959 1.2 249 16.1 101760 99
2009-06-29 06:20:17 51°13.662 2°55.959 1.4 249 16.1 101760 99
2009-06-29 06:20:23 51°13.662 2°55.959 1.4 249 16.1 101760 99
2009-06-29 06:20:28 51°13.662 2°55.959 1.6 249 16.1 101760 99
2009-06-29 06:20:33 51°13.662 2°55.959 1.8 246 16.1 101760 99
2009-06-29 06:20:38 51°13.662 2°55.959 2 254 16.1 101760 99
2009-06-29 06:20:42 51°13.662 2°55.959 1.5 249 16.1 101760 99
2009-06-29 06:20:48 51°13.662 2°55.959 1.6 249 16.1 101760 99
2009-06-29 06:20:53 51°13.662 2°55.959 1.6 247 16.1 101760 99
2009-06-29 06:20:58 51°13.662 2°55.959 1.8 22 16.1 101760 99
2009-06-29 06:21:02 51°13.662 2°55.959 1.6 250 16.1 101760 99
2009-06-29 06:21:08 51°13.662 2°55.959 1.6 251 16.1 101760 99
2009-06-29 06:21:13 51°13.662 2°55.959 1.3 249 16.1 101760 99
2009-06-29 06:21:18 51°13.662 2°55.959 1.5 249 16.1 101760 99
2009-06-29 06:21:22 51°13.662 2°55.959 1.1 255 16.1 101760 99
2009-06-29 06:21:28 51°13.662 2°55.959 1.2 255 16.1 101760 98
2009-06-29 06:21:33 51°13.662 2°55.958 1.8 248 16.1 101760 98
2009-06-29 06:21:38 51°13.662 2°55.959 1.7 250 16.1 101760 99
2009-06-29 06:21:42 51°13.662 2°55.959 1.8 249 16.1 101760 99
2009-06-29 06:21:48 51°13.663 2°55.959 1.9 249 16.1 101760 99
2009-06-29 06:21:53 51°13.663 2°55.959 2.3 252 16.1 101760 99
2009-06-29 06:21:58 51°13.664 2°55.959 2.4 251 16.1 101760 99
2009-06-29 06:22:03 51°13.663 2°55.959 1.8 253 16.1 101760 99
2009-06-29 06:22:08 51°13.662 2°55.959 1.6 250 16.1 101760 99
2009-06-29 06:22:13 51°13.662 2°55.958 1.2 250 16.1 101760 99
2009-06-29 06:22:17 51°13.662 2°55.958 1.2 250 16.1 101760 99
2009-06-29 06:22:23 51°13.662 2°55.958 1.3 253 16.1 101760 99
2009-06-29 06:22:28 51°13.662 2°55.958 1.2 254 16.1 101760 99
2009-06-29 06:22:33 51°13.662 2°55.958 0.9 255 16.1 101760 99
2009-06-29 06:22:38 51°13.662 2°55.958 1 260 16.1 101760 99
2009-06-29 06:22:42 51°13.662 2°55.958 2.5 253 16.1 101760 99
2009-06-29 06:22:48 51°13.662 2°55.958 2 261 16.1 101760 98
2009-06-29 06:22:53 51°13.662 2°55.958 2.2 251 16.1 101760 98
2009-06-29 06:22:58 51°13.663 2°55.959 2 251 16 101760 99
2009-06-29 06:23:02 51°13.663 2°55.959 2.1 254 16 101760 99
2009-06-29 06:23:08 51°13.662 2°55.958 1.6 254 16 101760 99
2009-06-29 06:23:13 51°13.662 2°55.958 2.3 254 16 101760 99
2009-06-29 06:23:18 51°13.662 2°55.958 1.7 253 16 101760 99
2009-06-29 06:23:22 51°13.662 2°55.958 1.2 255 16 101760 99
2009-06-29 06:23:28 51°13.662 2°55.958 1.6 255 16 101760 99
2009-06-29 06:23:33 51°13.663 2°55.958 1.5 258 16 101760 99
2009-06-29 06:23:38 51°13.663 2°55.959 1.4 265 16 101760 99
2009-06-29 06:23:42 51°13.664 2°55.959 1.9 259 16 101760 99
2009-06-29 06:23:48 51°13.664 2°55.959 1.6 260 16 101760 99
2009-06-29 06:23:53 51°13.664 2°55.959 1.8 259 16 101760 99
2009-06-29 06:23:58 51°13.664 2°55.959 2.2 251 16 101760 99
2009-06-29 06:24:03 51°13.663 2°55.959 1.9 263 16 101760 99
2009-06-29 06:24:08 51°13.663 2°55.959 1.5 265 16.1 101760 99
2009-06-29 06:24:13 51°13.663 2°55.958 2.2 245 16.1 101760 99
2009-06-29 06:24:18 51°13.663 2°55.958 1.9 254 16 101760 100
2009-06-29 06:24:23 51°13.662 2°55.958 2.1 255 16 101760 100
2009-06-29 06:24:28 51°13.662 2°55.958 1.7 264 16 101760 99
2009-06-29 06:24:33 51°13.662 2°55.958 1.6 267 16 101760 99
2009-06-29 06:24:38 51°13.662 2°55.958 1 267 16 101760 99
2009-06-29 06:24:42 51°13.662 2°55.958 0.9 270 16 101760 99
2009-06-29 06:24:48 51°13.662 2°55.958 1.1 255 16 101760 99
2009-06-29 06:24:53 51°13.662 2°55.958 1.3 265 16 101760 99
2009-06-29 06:24:58 51°13.662 2°55.958 1.1 265 16 101760 99
2009-06-29 06:25:02 51°13.662 2°55.958 1.1 259 16 101760 99
2009-06-29 06:25:08 51°13.662 2°55.958 1.4 263 16 101760 99
2009-06-29 06:25:13 51°13.662 2°55.958 1.8 260 16 101760 99
2009-06-29 06:25:18 51°13.662 2°55.958 1.8 259 16 101760 99
2009-06-29 06:25:22 51°13.662 2°55.958 1.2 38 16 101760 99
2009-06-29 06:25:28 51°13.662 2°55.958 1.4 26 16 101760 99
2009-06-29 06:25:33 51°13.662 2°55.958 1.4 250 16 101760 99
2009-06-29 06:25:38 51°13.662 2°55.958 1.2 250 16 101760 99
2009-06-29 06:25:42 51°13.662 2°55.959 1.9 254 16 101760 99
2009-06-29 06:25:48 51°13.662 2°55.959 1.8 254 16 101760 99
2009-06-29 06:25:53 51°13.663 2°55.959 1.3 254 16 101760 99
2009-06-29 06:25:58 51°13.663 2°55.96 1.6 255 16 101760 98
2009-06-29 06:26:03 51°13.664 2°55.96 1 254 16 101760 98
2009-06-29 06:26:08 51°13.663 2°55.959 1.2 254 16 101760 98
2009-06-29 06:26:13 51°13.662 2°55.959 1.1 248 16 101760 98
2009-06-29 06:26:18 51°13.662 2°55.959 1.2 20 16 101760 99
2009-06-29 06:26:23 51°13.662 2°55.959 0.9 241 16 101760 99
2009-06-29 06:26:28 51°13.661 2°55.959 1.1 22 16 101760 99
2009-06-29 06:26:33 51°13.661 2°55.959 0.9 241 16 101760 99
2009-06-29 06:26:38 51°13.661 2°55.959 0.8 27 16 101760 99
2009-06-29 06:26:42 51°13.662 2°55.959 1.4 244 16 101760 99
2009-06-29 06:26:48 51°13.661 2°55.959 1.6 244 16 101760 99
2009-06-29 06:26:53 51°13.661 2°55.959 1.3 245 16 101760 99
2009-06-29 06:26:58 51°13.661 2°55.959 1.1 245 16 101760 99
2009-06-29 06:27:02 51°13.661 2°55.959 1.3 248 16 101760 99
2009-06-29 06:27:08 51°13.661 2°55.959 1.3 20 16 101760 99
2009-06-29 06:27:13 51°13.662 2°55.959 1 247 16 101760 99
2009-06-29 06:27:18 51°13.663 2°55.96 0.8 247 16 101760 99
2009-06-29 06:27:22 51°13.664 2°55.961 1.6 247 16 101760 99
2009-06-29 06:27:28 51°13.665 2°55.961 1.8 250 16 101760 99
2009-06-29 06:27:33 51°13.665 2°55.961 1.6 250 16 101760 99
2009-06-29 06:27:38 51°13.666 2°55.962 1.6 248 16 101760 99
2009-06-29 06:27:42 51°13.666 2°55.962 1.5 248 16 101760 99
2009-06-29 06:27:48 51°13.664 2°55.961 1.6 21 16 101760 99
2009-06-29 06:27:53 51°13.662 2°55.959 1.5 243 16 101760 99
2009-06-29 06:27:58 51°13.661 2°55.958 1.5 26 16 101760 99
2009-06-29 06:28:03 51°13.662 2°55.958 1.4 242 16 101760 99
2009-06-29 06:28:08 51°13.662 2°55.959 1.8 21 16 101760 99
2009-06-29 06:28:13 51°13.663 2°55.959 2.3 246 16 101760 99
2009-06-29 06:28:18 51°13.663 2°55.959 2.2 22 16 101760 99
2009-06-29 06:28:22 51°13.662 2°55.959 1.7 240 16 101760 99
2009-06-29 06:28:28 51°13.663 2°55.959 1.9 25 16 101760 99
2009-06-29 06:28:33 51°13.664 2°55.96 1.8 240 16 101760 99
2009-06-29 06:28:38 51°13.664 2°55.96 1.9 23 16 101760 99
2009-06-29 06:28:42 51°13.665 2°55.96 1.6 240 16 101760 99
2009-06-29 06:28:48 51°13.665 2°55.96 1.6 25 16 101760 99
2009-06-29 06:28:53 51°13.663 2°55.959 1.7 241 16 101760 99
2009-06-29 06:28:58 51°13.662 2°55.958 1.8 22 16 101760 99
2009-06-29 06:29:02 51°13.661 2°55.958 1.6 242 16 101760 99
2009-06-29 06:29:08 51°13.661 2°55.958 1.5 22 16 101760 99
2009-06-29 06:29:13 51°13.661 2°55.958 1.5 242 16 101760 99
2009-06-29 06:29:18 51°13.661 2°55.958 1.4 26 16 101760 100
2009-06-29 06:29:23 51°13.661 2°55.958 1.3 242 16 101760 100
2009-06-29 06:29:28 51°13.661 2°55.958 1.5 26 16 101760 99
2009-06-29 06:29:33 51°13.662 2°55.958 1.3 242 16 101760 99
2009-06-29 06:29:38 51°13.662 2°55.957 1.3 242 15.9 101760 99
2009-06-29 06:29:43 51°13.662 2°55.958 1.1 242 15.9 101760 99
2009-06-29 06:29:48 51°13.662 2°55.958 1.2 26 16 101750 99
2009-06-29 06:29:53 51°13.662 2°55.958 1.1 242 16 101750 99
2009-06-29 06:29:58 51°13.662 2°55.958 1.2 242 16 101760 99
2009-06-29 06:30:03 51°13.662 2°55.958 0.9 249 16 101760 99
2009-06-29 06:30:08 51°13.662 2°55.958 0.8 249 15.9 101760 99
2009-06-29 06:30:13 51°13.662 2°55.958 0.8 249 15.9 101760 99
2009-06-29 06:30:18 51°13.662 2°55.958 0.7 249 15.9 101760 99
2009-06-29 06:30:22 51°13.662 2°55.958 0.4 249 15.9 101760 99
2009-06-29 06:30:28 51°13.662 2°55.958 0.4 249 15.9 101760 99
2009-06-29 06:30:33 51°13.662 2°55.958 0.5 249 15.9 101760 99
2009-06-29 06:30:38 51°13.662 2°55.958 0.5 249 15.9 101760 99
2009-06-29 06:30:42 51°13.662 2°55.958 0.2 249 15.9 101760 99
2009-06-29 06:30:48 51°13.662 2°55.958 0.2 249 15.9 101750 98
2009-06-29 06:30:53 51°13.662 2°55.958 0.1 249 15.9 101750 98
2009-06-29 06:30:58 51°13.663 2°55.959 0.3 249 15.9 101760 99
2009-06-29 06:31:02 51°13.663 2°55.959 0.9 249 15.9 101760 99
2009-06-29 06:31:08 51°13.662 2°55.958 0.9 249 16 101760 99
2009-06-29 06:31:13 51°13.662 2°55.958 0.9 249 16 101760 99
2009-06-29 06:31:18 51°13.662 2°55.958 1.1 249 15.9 101760 100
2009-06-29 06:31:23 51°13.662 2°55.958 0.5 249 15.9 101760 100
2009-06-29 06:31:28 51°13.662 2°55.958 0.5 249 15.9 101760 99
2009-06-29 06:31:33 51°13.662 2°55.958 0.9 249 15.9 101760 99
2009-06-29 06:31:38 51°13.662 2°55.958 1.1 253 15.9 101760 99
2009-06-29 06:31:43 51°13.662 2°55.958 2.1 257 15.9 101760 99
2009-06-29 06:31:48 51°13.661 2°55.958 2.1 261 16 101750 99
2009-06-29 06:31:53 51°13.661 2°55.958 1.8 260 16 101750 99
2009-06-29 06:31:58 51°13.661 2°55.958 1.7 255 15.9 101760 99
2009-06-29 06:32:03 51°13.661 2°55.958 1.2 262 15.9 101760 99
2009-06-29 06:32:08 51°13.661 2°55.958 1.1 263 16 101760 99
2009-06-29 06:32:13 51°13.661 2°55.958 1.3 260 16 101760 99
2009-06-29 06:32:18 51°13.66 2°55.958 1.3 261 16 101760 100
2009-06-29 06:32:22 51°13.66 2°55.958 1.2 264 16 101760 100
2009-06-29 06:32:28 51°13.66 2°55.958 1.4 264 16 101760 99
2009-06-29 06:32:33 51°13.66 2°55.958 1.5 264 16 101760 99
2009-06-29 06:32:38 51°13.66 2°55.958 1.8 30 16 101750 99
2009-06-29 06:32:42 51°13.661 2°55.958 1.1 269 16 101750 99
2009-06-29 06:32:48 51°13.661 2°55.958 0.8 269 16 101760 99
2009-06-29 06:32:53 51°13.661 2°55.958 1.9 259 16 101760 99
2009-06-29 06:32:58 51°13.661 2°55.958 1.4 259 16 101760 98
2009-06-29 06:33:02 51°13.661 2°55.958 1 268 16 101760 98
2009-06-29 06:33:08 51°13.661 2°55.958 1.3 258 16 101760 99
2009-06-29 06:33:13 51°13.661 2°55.958 0.7 258 16 101760 99
2009-06-29 06:33:18 51°13.661 2°55.958 0.4 258 16 101760 98
2009-06-29 06:33:23 51°13.661 2°55.958 0.1 258 16 101760 98
2009-06-29 06:33:28 51°13.661 2°55.958 0.1 259 16 101760 99
2009-06-29 06:33:33 51°13.661 2°55.959 0.1 258 16 101760 99
2009-06-29 06:33:38 51°13.661 2°55.959 0.7 258 16 101760 99
2009-06-29 06:33:43 51°13.661 2°55.959 0.8 270 16 101760 99
2009-06-29 06:33:48 51°13.661 2°55.959 0.8 26 16 101760 99
2009-06-29 06:33:53 51°13.661 2°55.959 0.7 267 16 101760 99
2009-06-29 06:33:58 51°13.661 2°55.959 1 261 16 101750 99
2009-06-29 06:34:02 51°13.661 2°55.959 1.1 261 16 101750 99
2009-06-29 06:34:08 51°13.661 2°55.958 0.9 261 16 101760 99
2009-06-29 06:34:13 51°13.661 2°55.959 1.1 261 16 101760 99
2009-06-29 06:34:18 51°13.662 2°55.959 0.9 261 16 101760 99
2009-06-29 06:34:22 51°13.662 2°55.959 0.6 261 16 101760 99
2009-06-29 06:34:28 51°13.662 2°55.959 0.8 261 16 101750 99
2009-06-29 06:34:33 51°13.662 2°55.959 1 250 16 101750 99
2009-06-29 06:34:38 51°13.663 2°55.959 0.9 250 16 101750 99
2009-06-29 06:34:42 51°13.663 2°55.96 0.5 250 16 101750 99
2009-06-29 06:34:48 51°13.664 2°55.96 0.4 250 16 101760 99
2009-06-29 06:34:53 51°13.664 2°55.96 1 250 16 101760 99
2009-06-29 06:34:58 51°13.663 2°55.96 1.5 250 16.1 101750 99
2009-06-29 06:35:02 51°13.662 2°55.959 1.3 249 16.1 101750 99
2009-06-29 06:35:08 51°13.661 2°55.959 1.1 249 16.1 101750 99
2009-06-29 06:35:13 51°13.661 2°55.958 2.2 252 16.1 101750 99
2009-06-29 06:35:18 51°13.661 2°55.958 2 252 16.1 101750 99
2009-06-29 06:35:23 51°13.661 2°55.959 2.4 248 16.1 101750 99
2009-06-29 06:35:28 51°13.661 2°55.959 2.6 254 16.1 101750 99
2009-06-29 06:35:33 51°13.662 2°55.959 3 242 16.1 101750 99
2009-06-29 06:35:38 51°13.662 2°55.959 2.8 252 16.1 101750 99
2009-06-29 06:35:43 51°13.662 2°55.959 2.1 251 16.1 101750 99
2009-06-29 06:35:48 51°13.662 2°55.959 2.4 251 16.1 101750 99
2009-06-29 06:35:53 51°13.662 2°55.959 2.4 251 16.1 101750 99
2009-06-29 06:35:58 51°13.662 2°55.959 2.1 254 16.1 101750 99
2009-06-29 06:36:02 51°13.662 2°55.959 2 267 16.1 101750 99
2009-06-29 06:36:08 51°13.662 2°55.958 1.7 264 16.1 101750 99
2009-06-29 06:36:13 51°13.662 2°55.958 2.4 44 16.1 101750 99
2009-06-29 06:36:18 51°13.662 2°55.958 2.1 30 16.1 101750 99
2009-06-29 06:36:22 51°13.662 2°55.958 1 245 16.1 101750 99
2009-06-29 06:36:28 51°13.661 2°55.958 1.1 21 16.1 101750 99
2009-06-29 06:36:33 51°13.661 2°55.958 1.2 263 16.1 101750 99
2009-06-29 06:36:38 51°13.661 2°55.958 1.4 255 16.1 101750 99
2009-06-29 06:36:42 51°13.661 2°55.958 1.9 248 16.1 101750 99
2009-06-29 06:36:48 51°13.661 2°55.958 2.2 19 16.1 101750 99
2009-06-29 06:36:53 51°13.661 2°55.958 2.4 250 16.1 101750 99
2009-06-29 06:36:58 51°13.661 2°55.957 2.3 253 16.1 101750 99
2009-06-29 06:37:02 51°13.661 2°55.957 2.2 246 16.1 101750 99
2009-06-29 06:37:08 51°13.661 2°55.957 1.9 246 16.1 101750 99
2009-06-29 06:37:13 51°13.661 2°55.957 2.4 245 16.1 101750 99
2009-06-29 06:37:18 51°13.661 2°55.957 2.3 243 16.2 101750 99
2009-06-29 06:37:22 51°13.661 2°55.957 2.4 242 16.2 101750 99
2009-06-29 06:37:28 51°13.661 2°55.957 2.4 24 16.2 101750 99
2009-06-29 06:37:33 51°13.662 2°55.958 2 244 16.2 101750 99
2009-06-29 06:37:38 51°13.663 2°55.959 1.4 20 16.2 101750 99
2009-06-29 06:37:43 51°13.664 2°55.959 1.8 241 16.2 101750 99
2009-06-29 06:37:48 51°13.665 2°55.96 2 28 16.2 101750 99
2009-06-29 06:37:53 51°13.666 2°55.961 2.2 245 16.2 101750 99
2009-06-29 06:37:58 51°13.666 2°55.961 1.6 21 16.2 101750 99
2009-06-29 06:38:02 51°13.666 2°55.961 2.1 245 16.2 101750 99
2009-06-29 06:38:08 51°13.665 2°55.96 2.6 20 16.2 101750 99
2009-06-29 06:38:13 51°13.665 2°55.96 1.8 249 16.2 101750 99
2009-06-29 06:38:18 51°13.664 2°55.959 1.3 254 16.2 101750 100
2009-06-29 06:38:22 51°13.662 2°55.958 0.9 253 16.2 101750 100
2009-06-29 06:38:28 51°13.66 2°55.957 1.3 28 16.2 101750 99
2009-06-29 06:38:33 51°13.66 2°55.957 2.2 236 16.2 101750 99
2009-06-29 06:38:38 51°13.66 2°55.957 1.8 245 16.2 101750 100
2009-06-29 06:38:42 51°13.66 2°55.957 1.5 242 16.2 101750 100
2009-06-29 06:38:48 51°13.66 2°55.957 2 27 16.2 101750 100
2009-06-29 06:38:53 51°13.661 2°55.957 2 242 16.2 101750 100
2009-06-29 06:38:58 51°13.662 2°55.958 1.7 247 16.2 101750 99
2009-06-29 06:39:02 51°13.662 2°55.959 1.2 246 16.2 101750 99
2009-06-29 06:39:08 51°13.663 2°55.959 1.1 246 16.2 101750 99
2009-06-29 06:39:13 51°13.663 2°55.959 1.8 238 16.2 101750 99
2009-06-29 06:39:18 51°13.663 2°55.959 2 27 16.2 101750 99
2009-06-29 06:39:22 51°13.663 2°55.959 2.4 246 16.2 101750 99
2009-06-29 06:39:28 51°13.663 2°55.959 2.4 245 16.2 101750 99
2009-06-29 06:39:33 51°13.661 2°55.958 2.1 240 16.2 101750 99
2009-06-29 06:39:38 51°13.661 2°55.958 1.9 23 16.2 101750 99
2009-06-29 06:39:43 51°13.661 2°55.958 2.1 240 16.2 101750 99
2009-06-29 06:39:48 51°13.661 2°55.958 1.5 243 16.2 101750 99
2009-06-29 06:39:53 51°13.661 2°55.958 2.1 246 16.2 101750 99
2009-06-29 06:39:58 51°13.661 2°55.958 2 246 16.2 101750 99
2009-06-29 06:40:02 51°13.661 2°55.958 2 246 16.2 101750 99
2009-06-29 06:40:08 51°13.661 2°55.958 1.9 246 16.2 101750 98
2009-06-29 06:40:13 51°13.661 2°55.958 1.7 239 16.2 101750 98
2009-06-29 06:40:18 51°13.661 2°55.958 1.8 22 16.2 101750 99
2009-06-29 06:40:22 51°13.661 2°55.958 1.4 242 16.2 101750 99
2009-06-29 06:40:28 51°13.661 2°55.958 1.3 27 16.2 101750 99
2009-06-29 06:40:33 51°13.661 2°55.958 1.2 244 16.2 101750 99
2009-06-29 06:40:38 51°13.661 2°55.958 1.3 27 16.2 101750 99
2009-06-29 06:40:42 51°13.661 2°55.957 1.3 236 16.2 101750 99
2009-06-29 06:40:48 51°13.661 2°55.957 1.4 26 16.2 101750 99
2009-06-29 06:40:53 51°13.661 2°55.957 1.5 236 16.2 101750 99
2009-06-29 06:40:58 51°13.661 2°55.958 1.7 23 16.1 101750 98
2009-06-29 06:41:03 51°13.661 2°55.958 1.9 239 16.1 101750 98
2009-06-29 06:41:08 51°13.661 2°55.958 1.9 22 16.2 101750 98
2009-06-29 06:41:13 51°13.661 2°55.958 1.6 238 16.2 101750 98
2009-06-29 06:41:18 51°13.661 2°55.958 1.8 20 16.1 101750 98
2009-06-29 06:41:22 51°13.661 2°55.958 1.3 238 16.1 101750 98
2009-06-29 06:41:28 51°13.661 2°55.958 1.2 28 16.1 101750 99
2009-06-29 06:41:33 51°13.661 2°55.958 1.6 237 16.1 101750 99
2009-06-29 06:41:38 51°13.661 2°55.958 1.9 28 16.1 101750 98
2009-06-29 06:41:43 51°13.662 2°55.958 2 32 16.1 101750 98
2009-06-29 06:41:48 51°13.662 2°55.958 2 22 16.1 101750 98
2009-06-29 06:41:53 51°13.662 2°55.958 1.8 235 16.1 101750 98
2009-06-29 06:41:58 51°13.662 2°55.958 2.1 22 16.1 101750 98
2009-06-29 06:42:02 51°13.662 2°55.958 1.8 235 16.1 101750 98
2009-06-29 06:42:08 51°13.662 2°55.958 1.4 21 16.1 101750 98
2009-06-29 06:42:13 51°13.662 2°55.958 1.7 34 16.1 101750 98
2009-06-29 06:42:18 51°13.662 2°55.958 1.8 29 16.1 101750 98
2009-06-29 06:42:22 51°13.662 2°55.958 1.5 38 16.1 101750 98
2009-06-29 06:42:28 51°13.662 2°55.959 1.3 26 16.1 101750 99
2009-06-29 06:42:33 51°13.662 2°55.959 1.5 234 16.1 101750 99
2009-06-29 06:42:38 51°13.662 2°55.959 1.9 23 16.1 101750 98
2009-06-29 06:42:42 51°13.661 2°55.959 1.7 237 16.1 101750 98
2009-06-29 06:42:48 51°13.661 2°55.959 1.5 22 16.1 101750 98
2009-06-29 06:42:53 51°13.661 2°55.959 1.6 39 16.1 101750 98
2009-06-29 06:42:58 51°13.662 2°55.959 1.4 27 16.1 101750 98
2009-06-29 06:43:03 51°13.661 2°55.959 1.1 237 16.1 101750 98
2009-06-29 06:43:08 51°13.661 2°55.959 1.3 27 16.1 101750 98
2009-06-29 06:43:13 51°13.661 2°55.959 0.9 237 16.1 101750 98
2009-06-29 06:43:18 51°13.661 2°55.959 0.9 20 16.1 101750 98
2009-06-29 06:43:23 51°13.661 2°55.959 0.9 237 16.1 101750 98
2009-06-29 06:43:28 51°13.661 2°55.959 1.2 21 16.1 101750 99
2009-06-29 06:43:33 51°13.661 2°55.959 1.3 32 16.1 101750 99
2009-06-29 06:43:38 51°13.661 2°55.959 1.2 22 16.1 101750 98
2009-06-29 06:43:42 51°13.661 2°55.959 1.2 35 16.1 101750 98
2009-06-29 06:43:48 51°13.661 2°55.959 1.4 22 16.1 101750 98
2009-06-29 06:43:53 51°13.662 2°55.959 1.3 39 16.1 101750 98
2009-06-29 06:43:58 51°13.662 2°55.959 1.3 28 16.1 101750 98
2009-06-29 06:44:03 51°13.662 2°55.959 1.3 37 16.1 101750 98
2009-06-29 06:44:08 51°13.662 2°55.959 1.9 20 16.1 101750 98
2009-06-29 06:44:13 51°13.662 2°55.959 1.6 32 16.1 101750 98
2009-06-29 06:44:18 51°13.662 2°55.959 1.6 27 16.1 101750 98
2009-06-29 06:44:22 51°13.662 2°55.959 1.3 32 16.1 101750 98
2009-06-29 06:44:28 51°13.662 2°55.959 1.2 27 16.1 101750 98
2009-06-29 06:44:33 51°13.662 2°55.959 1.4 38 16.1 101750 98
2009-06-29 06:44:38 51°13.662 2°55.959 1.3 26 16.1 101750 99
2009-06-29 06:44:42 51°13.662 2°55.959 1.3 235 16.1 101750 99
2009-06-29 06:44:48 51°13.662 2°55.959 1 27 16.1 101750 99
2009-06-29 06:44:53 51°13.662 2°55.959 1.1 39 16.1 101750 99
2009-06-29 06:44:58 51°13.662 2°55.959 1.2 27 16.1 101750 98
2009-06-29 06:45:02 51°13.662 2°55.959 1 31 16.1 101750 98
2009-06-29 06:45:08 51°13.661 2°55.959 1.2 27 16.1 101750 99
2009-06-29 06:45:13 51°13.662 2°55.959 1.4 37 16.1 101750 99
2009-06-29 06:45:18 51°13.662 2°55.959 1.2 29 16.1 101750 99
2009-06-29 06:45:23 51°13.662 2°55.959 1.2 39 16.1 101750 99
2009-06-29 06:45:28 51°13.662 2°55.959 1 26 16.1 101750 98
2009-06-29 06:45:33 51°13.662 2°55.959 1.1 37 16.1 101750 98
2009-06-29 06:45:38 51°13.662 2°55.959 1.3 20 16.1 101750 99
2009-06-29 06:45:43 51°13.662 2°55.959 1.5 37 16.1 101750 99
2009-06-29 06:45:48 51°13.662 2°55.959 1.5 25 16.1 101750 98
2009-06-29 06:45:53 51°13.662 2°55.959 1.2 33 16.1 101750 98
2009-06-29 06:45:58 51°13.662 2°55.959 1.1 28 16.2 101760 98
2009-06-29 06:46:03 51°13.662 2°55.959 0.9 235 16.2 101760 98
2009-06-29 06:46:08 51°13.662 2°55.959 0.9 22 16.2 101750 98
2009-06-29 06:46:13 51°13.662 2°55.959 1 32 16.2 101750 98
2009-06-29 06:46:18 51°13.662 2°55.959 1.1 22 16.2 101760 98
2009-06-29 06:46:22 51°13.662 2°55.959 0.7 235 16.2 101760 98
2009-06-29 06:46:28 51°13.662 2°55.959 0.7 26 16.2 101750 98
2009-06-29 06:46:33 51°13.662 2°55.959 1.1 33 16.2 101750 98
2009-06-29 06:46:38 51°13.662 2°55.959 1.1 23 16.2 101760 98
2009-06-29 06:46:42 51°13.662 2°55.959 1.2 235 16.2 101760 98
2009-06-29 06:46:48 51°13.662 2°55.959 1 27 16.3 101750 99
2009-06-29 06:46:53 51°13.662 2°55.958 1.3 235 16.3 101750 99
2009-06-29 06:46:58 51°13.662 2°55.958 1.5 26 16.3 101760 98
2009-06-29 06:47:02 51°13.662 2°55.958 1.4 34 16.3 101760 98
2009-06-29 06:47:08 51°13.662 2°55.958 1.7 23 16.3 101760 98
2009-06-29 06:47:13 51°13.662 2°55.958 2 237 16.3 101760 98
2009-06-29 06:47:18 51°13.662 2°55.958 1.7 21 16.3 101760 99
2009-06-29 06:47:22 51°13.662 2°55.958 1.8 237 16.3 101760 99
2009-06-29 06:47:28 51°13.662 2°55.958 1.7 26 16.3 101760 98
2009-06-29 06:47:33 51°13.662 2°55.959 1.8 241 16.3 101760 98
2009-06-29 06:47:38 51°13.662 2°55.959 1.7 26 16.3 101760 99
2009-06-29 06:47:43 51°13.662 2°55.959 1.3 241 16.3 101760 99
2009-06-29 06:47:48 51°13.662 2°55.959 1.2 21 16.3 101760 99
2009-06-29 06:47:53 51°13.662 2°55.959 1.3 241 16.3 101760 99
2009-06-29 06:47:58 51°13.662 2°55.959 1.2 27 16.3 101760 100
2009-06-29 06:48:03 51°13.662 2°55.959 1.1 241 16.3 101760 100
2009-06-29 06:48:08 51°13.663 2°55.959 1.1 25 16.3 101760 98
2009-06-29 06:48:13 51°13.663 2°55.959 1.1 241 16.3 101760 98
2009-06-29 06:48:18 51°13.663 2°55.959 0.9 22 16.3 101760 99
2009-06-29 06:48:22 51°13.663 2°55.959 1 241 16.3 101760 99
2009-06-29 06:48:28 51°13.663 2°55.959 1.2 29 16.3 101760 99
2009-06-29 06:48:33 51°13.663 2°55.959 1.1 241 16.3 101760 99
2009-06-29 06:48:38 51°13.663 2°55.959 1 245 16.3 101760 99
2009-06-29 06:48:42 51°13.663 2°55.96 0.6 245 16.3 101760 99
2009-06-29 06:48:48 51°13.663 2°55.96 0.6 245 16.3 101760 98
2009-06-29 06:48:53 51°13.663 2°55.96 1 245 16.3 101760 98
2009-06-29 06:48:58 51°13.663 2°55.96 0.9 245 16.3 101760 99
2009-06-29 06:49:02 51°13.663 2°55.96 0.5 245 16.3 101760 99
2009-06-29 06:49:08 51°13.663 2°55.96 0.7 20 16.3 101760 98
2009-06-29 06:49:13 51°13.663 2°55.96 1.4 245 16.3 101760 98
2009-06-29 06:49:18 51°13.663 2°55.96 1.4 20 16.3 101760 98
2009-06-29 06:49:23 51°13.663 2°55.96 1.7 245 16.3 101760 98
2009-06-29 06:49:28 51°13.663 2°55.961 2.1 22 16.3 101760 98
2009-06-29 06:49:33 51°13.662 2°55.961 1.8 246 16.3 101760 98
2009-06-29 06:49:38 51°13.662 2°55.961 1.9 246 16.3 101760 98
2009-06-29 06:49:43 51°13.662 2°55.961 1.5 246 16.3 101760 98
2009-06-29 06:49:48 51°13.663 2°55.961 1.8 21 16.3 101760 98
2009-06-29 06:49:53 51°13.663 2°55.961 1.8 246 16.3 101760 98
2009-06-29 06:49:58 51°13.663 2°55.961 1.9 22 16.3 101760 99
2009-06-29 06:50:03 51°13.663 2°55.961 1.8 246 16.3 101760 99
2009-06-29 06:50:08 51°13.663 2°55.961 1.6 246 16.3 101760 98
2009-06-29 06:50:13 51°13.663 2°55.961 1.6 246 16.3 101760 98
2009-06-29 06:50:18 51°13.663 2°55.961 1.7 20 16.3 101760 99
2009-06-29 06:50:22 51°13.662 2°55.961 1.8 246 16.3 101760 99
2009-06-29 06:50:28 51°13.662 2°55.962 1.5 24 16.3 101760 99
2009-06-29 06:50:33 51°13.662 2°55.962 1.5 246 16.3 101760 99
2009-06-29 06:50:38 51°13.662 2°55.962 1.5 246 16.3 101760 98
2009-06-29 06:50:42 51°13.662 2°55.962 1.4 246 16.3 101760 98
2009-06-29 06:50:48 51°13.663 2°55.962 1.6 246 16.3 101760 99
2009-06-29 06:50:53 51°13.663 2°55.962 1.5 246 16.3 101760 99
2009-06-29 06:50:58 51°13.663 2°55.962 1.5 246 16.3 101760 98
2009-06-29 06:51:02 51°13.663 2°55.962 1.5 246 16.3 101760 98
2009-06-29 06:51:08 51°13.663 2°55.962 1.3 21 16.3 101760 99
2009-06-29 06:51:13 51°13.663 2°55.962 1.4 246 16.3 101760 99
2009-06-29 06:51:18 51°13.663 2°55.962 1.4 246 16.3 101760 98
2009-06-29 06:51:23 51°13.663 2°55.962 1.4 244 16.3 101760 98
2009-06-29 06:51:28 51°13.663 2°55.962 1.5 244 16.3 101760 98
2009-06-29 06:51:33 51°13.663 2°55.962 1.5 285 16.3 101760 98
2009-06-29 06:51:38 51°13.663 2°55.962 1.4 23 16.3 101760 98
2009-06-29 06:51:43 51°13.663 2°55.961 1.6 303 16.3 101760 98
2009-06-29 06:51:48 51°13.663 2°55.961 1.4 26 16.3 101760 98
2009-06-29 06:51:53 51°13.663 2°55.961 1.4 308 16.3 101760 98
2009-06-29 06:51:58 51°13.663 2°55.961 1.5 244 16.3 101760 98
2009-06-29 06:52:03 51°13.663 2°55.961 1.5 243 16.3 101760 98
2009-06-29 06:52:08 51°13.663 2°55.961 1.5 23 16.3 101760 98
2009-06-29 06:52:13 51°13.663 2°55.961 1.3 243 16.3 101760 98
2009-06-29 06:52:18 51°13.663 2°55.961 1.3 21 16.3 101760 98
2009-06-29 06:52:22 51°13.663 2°55.961 1.1 244 16.3 101760 98
2009-06-29 06:52:28 51°13.663 2°55.961 1.1 20 16.3 101760 98
2009-06-29 06:52:33 51°13.663 2°55.961 1.4 243 16.3 101760 98
2009-06-29 06:52:38 51°13.663 2°55.96 1.4 26 16.3 101760 99
2009-06-29 06:52:42 51°13.663 2°55.96 1.2 243 16.3 101760 99
2009-06-29 06:52:48 51°13.662 2°55.96 1.2 244 16.3 101760 99
2009-06-29 06:52:53 51°13.662 2°55.96 1.4 243 16.3 101760 99
2009-06-29 06:52:58 51°13.662 2°55.96 1.2 243 16.3 101760 98
2009-06-29 06:53:02 51°13.662 2°55.96 1.3 243 16.3 101760 98
2009-06-29 06:53:08 51°13.662 2°55.96 1.4 244 16.3 101760 98
2009-06-29 06:53:13 51°13.662 2°55.96 1.6 244 16.3 101760 98
2009-06-29 06:53:18 51°13.662 2°55.96 1.5 26 16.3 101760 98
2009-06-29 06:53:22 51°13.662 2°55.96 1.3 244 16.3 101760 98
2009-06-29 06:53:28 51°13.662 2°55.96 1.3 23 16.3 101760 98
2009-06-29 06:53:33 51°13.663 2°55.96 1.8 244 16.3 101760 98
2009-06-29 06:53:38 51°13.663 2°55.96 1.8 20 16.3 101760 98
2009-06-29 06:53:43 51°13.663 2°55.96 1.7 310 16.3 101760 98
2009-06-29 06:53:48 51°13.663 2°55.96 1.2 22 16.3 101760 98
2009-06-29 06:53:53 51°13.663 2°55.96 1 255 16.3 101760 98
2009-06-29 06:53:58 51°13.663 2°55.96 1.3 257 16.3 101760 98
2009-06-29 06:54:03 51°13.663 2°55.96 1.8 266 16.3 101760 98
2009-06-29 06:54:08 51°13.663 2°55.96 1.6 266 16.3 101760 98
2009-06-29 06:54:13 51°13.663 2°55.96 1.8 39 16.3 101760 98
2009-06-29 06:54:18 51°13.662 2°55.96 1.7 26 16.3 101760 98
2009-06-29 06:54:22 51°13.662 2°55.959 1.4 39 16.3 101760 98
2009-06-29 06:54:28 51°13.662 2°55.959 1.3 27 16.3 101760 98
2009-06-29 06:54:33 51°13.662 2°55.959 1.2 35 16.3 101760 98
2009-06-29 06:54:38 51°13.662 2°55.959 1.3 29 16.3 101760 98
2009-06-29 06:54:42 51°13.662 2°55.959 0.9 31 16.3 101760 98
2009-06-29 06:54:48 51°13.663 2°55.959 1.3 22 16.3 101760 99
2009-06-29 06:54:53 51°13.663 2°55.959 2.2 269 16.3 101760 99
2009-06-29 06:54:58 51°13.663 2°55.959 2.2 269 16.3 101760 99
2009-06-29 06:55:02 51°13.663 2°55.959 1.1 42 16.3 101760 99
2009-06-29 06:55:08 51°13.663 2°55.959 0.9 28 16.3 101760 98
2009-06-29 06:55:13 51°13.663 2°55.959 1.4 270 16.3 101760 98
2009-06-29 06:55:18 51°13.663 2°55.959 1.3 267 16.3 101760 98
2009-06-29 06:55:22 51°13.662 2°55.959 1.3 270 16.3 101760 98
2009-06-29 06:55:28 51°13.663 2°55.959 1.4 263 16.2 101760 98
2009-06-29 06:55:33 51°13.663 2°55.959 1.3 40 16.2 101760 98
2009-06-29 06:55:38 51°13.662 2°55.959 1.4 265 16.2 101760 98
2009-06-29 06:55:43 51°13.662 2°55.959 1.3 263 16.2 101760 98
2009-06-29 06:55:48 51°13.662 2°55.959 1.2 263 16.2 101760 99
2009-06-29 06:55:53 51°13.662 2°55.959 1.7 41 16.2 101760 99
2009-06-29 06:55:58 51°13.662 2°55.959 2.2 22 16.2 101760 99
2009-06-29 06:56:03 51°13.662 2°55.96 1.2 57 16.2 101760 99
2009-06-29 06:56:08 51°13.662 2°55.96 1.8 267 16.2 101760 98
2009-06-29 06:56:13 51°13.662 2°55.96 1.3 267 16.2 101760 98
2009-06-29 06:56:18 51°13.662 2°55.96 1.1 268 16.2 101760 99
2009-06-29 06:56:23 51°13.663 2°55.96 1.8 267 16.2 101760 99
2009-06-29 06:56:28 51°13.663 2°55.96 1.8 270 16.3 101760 98
2009-06-29 06:56:33 51°13.663 2°55.96 1.7 39 16.3 101760 98
2009-06-29 06:56:38 51°13.663 2°55.96 1.3 32 16.2 101760 98
2009-06-29 06:56:42 51°13.663 2°55.96 1 34 16.2 101760 98
2009-06-29 06:56:48 51°13.663 2°55.96 1.6 29 16.2 101760 99
2009-06-29 06:56:53 51°13.663 2°55.96 2 268 16.2 101760 99
2009-06-29 06:56:58 51°13.663 2°55.96 1.4 261 16.2 101760 98
2009-06-29 06:57:02 51°13.663 2°55.959 1.7 269 16.2 101760 98
2009-06-29 06:57:08 51°13.662 2°55.96 1.5 270 16.2 101770 98
2009-06-29 06:57:13 51°13.662 2°55.96 1.6 268 16.2 101770 98
2009-06-29 06:57:18 51°13.662 2°55.96 1.7 268 16.2 101760 99
2009-06-29 06:57:22 51°13.662 2°55.96 1.7 270 16.2 101760 99
2009-06-29 06:57:28 51°13.662 2°55.96 1.5 270 16.2 101770 98
2009-06-29 06:57:33 51°13.662 2°55.96 2.1 270 16.2 101770 98
2009-06-29 06:57:38 51°13.662 2°55.96 1.9 269 16.2 101760 99
2009-06-29 06:57:43 51°13.662 2°55.96 2.3 62 16.2 101760 99
2009-06-29 06:57:48 51°13.662 2°55.96 2.3 30 16.2 101760 98
2009-06-29 06:57:53 51°13.662 2°55.96 2 34 16.2 101760 98
2009-06-29 06:57:58 51°13.662 2°55.96 1.9 28 16.2 101760 98
2009-06-29 06:58:02 51°13.663 2°55.96 1.7 37 16.2 101760 98
2009-06-29 06:58:08 51°13.663 2°55.959 2 20 16.2 101770 98
2009-06-29 06:58:13 51°13.663 2°55.959 1.6 38 16.2 101770 98
2009-06-29 06:58:18 51°13.663 2°55.959 1.9 26 16.2 101760 99
2009-06-29 06:58:22 51°13.663 2°55.959 1.7 37 16.2 101760 99
2009-06-29 06:58:28 51°13.663 2°55.959 1.9 26 16.2 101770 99
2009-06-29 06:58:33 51°13.663 2°55.959 1.3 261 16.2 101770 99
2009-06-29 06:58:38 51°13.663 2°55.959 1.2 261 16.2 101760 98
2009-06-29 06:58:42 51°13.663 2°55.959 1.2 261 16.2 101760 98
2009-06-29 06:58:48 51°13.663 2°55.959 1.2 261 16.2 101770 98
2009-06-29 06:58:53 51°13.663 2°55.959 0.8 261 16.2 101770 98
2009-06-29 06:58:58 51°13.663 2°55.959 0.7 262 16.2 101760 98
2009-06-29 06:59:02 51°13.663 2°55.959 1.2 37 16.2 101760 98
2009-06-29 06:59:08 51°13.662 2°55.959 1.3 21 16.2 101760 99
2009-06-29 06:59:13 51°13.662 2°55.959 0.9 41 16.2 101760 99
2009-06-29 06:59:18 51°13.662 2°55.959 0.8 28 16.2 101760 98
2009-06-29 06:59:23 51°13.662 2°55.959 1.2 270 16.2 101760 98
2009-06-29 06:59:28 51°13.662 2°55.959 1.6 262 16.2 101760 98
2009-06-29 06:59:33 51°13.662 2°55.959 1.7 267 16.2 101760 98
2009-06-29 06:59:38 51°13.662 2°55.959 1.6 262 16.2 101760 98
2009-06-29 06:59:42 51°13.662 2°55.959 1.3 257 16.2 101760 98
2009-06-29 06:59:48 51°13.662 2°55.959 1.2 257 16.3 101760 99
2009-06-29 06:59:53 51°13.662 2°55.959 0.6 257 16.3 101760 99
2009-06-29 06:59:58 51°13.662 2°55.958 0.5 257 16.3 101760 98
2009-06-29 07:00:03 51°13.662 2°55.958 1.4 304 16.3 101760 98
2009-06-29 07:00:07 51°13.662 2°55.958 1 266 16.3 101770 99
2009-06-29 07:00:13 51°13.662 2°55.958 0.6 265 16.3 101770 99
2009-06-29 07:00:18 51°13.662 2°55.958 0.7 265 16.3 101760 99
2009-06-29 07:00:22 51°13.662 2°55.958 0.5 270 16.3 101760 99
2009-06-29 07:00:28 51°13.662 2°55.958 0.5 270 16.3 101770 99
2009-06-29 07:00:33 51°13.662 2°55.958 0.4 270 16.3 101770 99
2009-06-29 07:00:38 51°13.662 2°55.958 0.7 270 16.3 101770 98
2009-06-29 07:00:42 51°13.662 2°55.958 0.6 270 16.3 101770 98
2009-06-29 07:00:48 51°13.662 2°55.958 0.6 270 16.3 101770 99
2009-06-29 07:00:53 51°13.662 2°55.958 0.7 270 16.3 101770 99
2009-06-29 07:00:58 51°13.662 2°55.958 0.6 270 16.2 101770 99
2009-06-29 07:01:02 51°13.662 2°55.958 0.7 265 16.2 101770 99
2009-06-29 07:01:08 51°13.662 2°55.958 0.5 264 16.2 101770 99
2009-06-29 07:01:13 51°13.662 2°55.958 0.2 267 16.2 101770 99
2009-06-29 07:01:18 51°13.662 2°55.958 0.2 27 16.3 101770 99
2009-06-29 07:01:22 51°13.662 2°55.958 0.4 35 16.3 101770 99
2009-06-29 07:01:28 51°13.662 2°55.958 0.4 24 16.3 101770 99
2009-06-29 07:01:33 51°13.662 2°55.958 0.3 38 16.3 101770 99
2009-06-29 07:01:38 51°13.662 2°55.958 0.4 26 16.3 101770 99
2009-06-29 07:01:43 51°13.662 2°55.958 0.9 266 16.3 101770 99
2009-06-29 07:01:48 51°13.662 2°55.958 1 326 16.3 101770 99
2009-06-29 07:01:53 51°13.662 2°55.958 1 36 16.3 101770 99
2009-06-29 07:01:58 51°13.662 2°55.958 0.8 26 16.3 101770 99
2009-06-29 07:02:02 51°13.662 2°55.958 1 36 16.3 101770 99
2009-06-29 07:02:08 51°13.662 2°55.958 1.2 20 16.3 101770 99
2009-06-29 07:02:13 51°13.662 2°55.958 0.9 34 16.3 101770 99
2009-06-29 07:02:18 51°13.662 2°55.958 0.7 257 16.3 101770 99
2009-06-29 07:02:23 51°13.662 2°55.958 0.7 303 16.3 101770 99
2009-06-29 07:02:27 51°13.662 2°55.958 0.9 257 16.3 101770 99
2009-06-29 07:02:33 51°13.662 2°55.958 1.3 246 16.3 101770 99
2009-06-29 07:02:38 51°13.662 2°55.958 1.8 20 16.3 101770 98
2009-06-29 07:02:42 51°13.662 2°55.958 0.7 267 16.3 101770 98
2009-06-29 07:02:48 51°13.662 2°55.958 0.6 267 16.3 101770 98
2009-06-29 07:02:53 51°13.662 2°55.958 1.1 267 16.3 101770 98
2009-06-29 07:02:58 51°13.662 2°55.958 1 254 16.4 101770 98
2009-06-29 07:03:02 51°13.662 2°55.958 1 44 16.4 101770 98
2009-06-29 07:03:08 51°13.662 2°55.958 1 30 16.4 101770 99
2009-06-29 07:03:13 51°13.662 2°55.958 0.8 262 16.4 101770 99
2009-06-29 07:03:18 51°13.662 2°55.958 0.8 262 16.4 101770 99
2009-06-29 07:03:23 51°13.662 2°55.958 0.7 263 16.4 101770 99
2009-06-29 07:03:28 51°13.662 2°55.958 0.8 262 16.4 101770 99
2009-06-29 07:03:33 51°13.662 2°55.958 0.5 262 16.4 101770 99
2009-06-29 07:03:38 51°13.662 2°55.958 0.6 262 16.4 101770 99
2009-06-29 07:03:43 51°13.662 2°55.958 1.3 38 16.4 101770 99
2009-06-29 07:03:48 51°13.662 2°55.958 1.2 261 16.4 101770 99
2009-06-29 07:03:53 51°13.662 2°55.958 1.3 259 16.4 101770 99
2009-06-29 07:03:58 51°13.662 2°55.958 1.4 255 16.4 101770 99
2009-06-29 07:04:03 51°13.662 2°55.958 1.7 304 16.4 101770 99
2009-06-29 07:04:08 51°13.662 2°55.958 1.4 246 16.4 101770 100
2009-06-29 07:04:13 51°13.662 2°55.958 1.3 246 16.4 101770 100
2009-06-29 07:04:18 51°13.662 2°55.958 1.4 246 16.5 101770 100
2009-06-29 07:04:23 51°13.662 2°55.958 1.2 303 16.5 101770 100
2009-06-29 07:04:28 51°13.663 2°55.958 1.1 246 16.5 101770 99
2009-06-29 07:04:33 51°13.663 2°55.958 1 245 16.5 101770 99
2009-06-29 07:04:38 51°13.663 2°55.958 0.9 20 16.5 101770 99
2009-06-29 07:04:42 51°13.663 2°55.958 1.3 241 16.5 101770 99
2009-06-29 07:04:48 51°13.663 2°55.958 1.3 23 16.5 101770 99
2009-06-29 07:04:53 51°13.663 2°55.958 1 241 16.5 101770 99
2009-06-29 07:04:58 51°13.663 2°55.958 1.1 21 16.5 101770 99
2009-06-29 07:05:02 51°13.662 2°55.958 0.9 241 16.5 101770 99
2009-06-29 07:05:08 51°13.662 2°55.958 0.8 22 16.5 101770 99
2009-06-29 07:05:13 51°13.662 2°55.958 0.6 241 16.5 101770 99
2009-06-29 07:05:18 51°13.663 2°55.958 0.4 28 16.5 101770 99
2009-06-29 07:05:23 51°13.663 2°55.958 0.3 241 16.5 101770 99
2009-06-29 07:05:28 51°13.662 2°55.958 0.4 25 16.5 101770 99
2009-06-29 07:05:33 51°13.662 2°55.958 0.5 241 16.5 101770 99
2009-06-29 07:05:38 51°13.662 2°55.958 0.6 26 16.5 101770 99
2009-06-29 07:05:43 51°13.662 2°55.958 0.5 241 16.5 101770 99
2009-06-29 07:05:48 51°13.662 2°55.958 0.5 27 16.5 101770 99
2009-06-29 07:05:53 51°13.662 2°55.958 0.5 241 16.5 101770 99
2009-06-29 07:05:58 51°13.662 2°55.958 0.6 27 16.5 101770 99
2009-06-29 07:06:03 51°13.662 2°55.958 0.8 241 16.5 101770 99
2009-06-29 07:06:08 51°13.662 2°55.958 0.7 28 16.5 101770 99
2009-06-29 07:06:13 51°13.662 2°55.958 0.4 241 16.5 101770 99
2009-06-29 07:06:18 51°13.662 2°55.958 0.4 28 16.5 101770 100
2009-06-29 07:06:22 51°13.662 2°55.958 0.4 241 16.5 101770 100
2009-06-29 07:06:28 51°13.662 2°55.958 0.4 26 16.5 101770 99
2009-06-29 07:06:33 51°13.662 2°55.959 0.2 241 16.5 101770 99
2009-06-29 07:06:38 51°13.662 2°55.959 0.1 26 16.6 101770 99
2009-06-29 07:06:42 51°13.662 2°55.959 -999 241 16.6 101770 99
2009-06-29 07:06:48 51°13.662 2°55.959 0.1 19 16.6 101780 99
2009-06-29 07:06:53 51°13.662 2°55.959 0.6 241 16.6 101780 99
2009-06-29 07:06:58 51°13.662 2°55.959 0.8 26 16.6 101770 99
2009-06-29 07:07:03 51°13.662 2°55.959 0.6 302 16.6 101770 99
2009-06-29 07:07:08 51°13.662 2°55.959 0.7 24 16.6 101770 99
2009-06-29 07:07:13 51°13.662 2°55.959 0.5 241 16.6 101770 99
2009-06-29 07:07:18 51°13.662 2°55.959 0.4 22 16.6 101770 99
2009-06-29 07:07:22 51°13.662 2°55.959 0.8 241 16.6 101770 99
2009-06-29 07:07:28 51°13.662 2°55.959 0.7 25 16.6 101770 99
2009-06-29 07:07:33 51°13.662 2°55.959 0.5 241 16.6 101770 99
2009-06-29 07:07:38 51°13.662 2°55.959 0.5 22 16.6 101770 99
2009-06-29 07:07:43 51°13.661 2°55.959 0.6 241 16.6 101770 99
2009-06-29 07:07:48 51°13.661 2°55.959 0.5 28 16.6 101770 99
2009-06-29 07:07:53 51°13.662 2°55.959 1.2 241 16.6 101770 99
2009-06-29 07:07:58 51°13.662 2°55.959 1.2 23 16.7 101770 93
2009-06-29 07:08:03 51°13.662 2°55.959 1.6 242 16.7 101770 93
2009-06-29 07:08:08 51°13.662 2°55.959 1.6 28 16.7 101770 93
2009-06-29 07:08:13 51°13.662 2°55.959 1.2 242 16.7 101770 93
2009-06-29 07:08:18 51°13.662 2°55.959 1.4 25 16.7 101770 93
2009-06-29 07:08:23 51°13.662 2°55.959 1.6 244 16.7 101770 93
2009-06-29 07:08:28 51°13.662 2°55.959 1.7 20 16.7 101770 93
2009-06-29 07:08:33 51°13.662 2°55.959 1.3 245 16.7 101770 93
2009-06-29 07:08:38 51°13.662 2°55.959 1.2 21 16.7 101770 92
2009-06-29 07:08:43 51°13.662 2°55.959 1.3 246 16.7 101770 92
2009-06-29 07:08:48 51°13.662 2°55.959 1.3 250 16.7 101770 93
2009-06-29 07:08:53 51°13.662 2°55.959 1.6 253 16.7 101770 93
2009-06-29 07:08:58 51°13.663 2°55.959 1.6 253 16.7 101780 93
2009-06-29 07:09:02 51°13.663 2°55.959 1.7 254 16.7 101780 93
2009-06-29 07:09:08 51°13.663 2°55.959 1.7 254 16.7 101780 93
2009-06-29 07:09:13 51°13.663 2°55.959 1.1 241 16.7 101780 93
2009-06-29 07:09:18 51°13.663 2°55.959 0.7 22 16.7 101780 95
2009-06-29 07:09:23 51°13.663 2°55.959 0.8 261 16.7 101780 95
2009-06-29 07:09:28 51°13.663 2°55.959 1.1 258 16.7 101770 95
2009-06-29 07:09:33 51°13.663 2°55.959 2 253 16.7 101770 95
2009-06-29 07:09:38 51°13.663 2°55.959 1.5 253 16.7 101780 97
2009-06-29 07:09:43 51°13.663 2°55.959 1.9 257 16.7 101780 97
2009-06-29 07:09:48 51°13.663 2°55.959 1.9 267 16.7 101780 100
2009-06-29 07:09:53 51°13.663 2°55.959 2 261 16.7 101780 100
2009-06-29 07:09:58 51°13.663 2°55.959 1.5 261 16.7 101780 100
2009-06-29 07:10:03 51°13.663 2°55.959 1.2 266 16.7 101780 100
2009-06-29 07:10:08 51°13.663 2°55.959 1.4 266 16.7 101780 100
2009-06-29 07:10:18 51°13.663 2°55.959 1.7 262 16.7 101780 100
2009-06-29 07:10:24 51°13.663 2°55.959 1.7 259 16.7 101780 100
2009-06-29 07:10:29 51°13.663 2°55.959 1.7 259 16.7 101780 100
2009-06-29 07:10:34 51°13.663 2°55.959 1.1 262 16.7 101780 100
2009-06-29 07:10:38 51°13.663 2°55.959 1.2 281 16.7 101780 100
2009-06-29 07:10:44 51°13.662 2°55.959 0.8 258 16.7 101780 100
2009-06-29 07:10:49 51°13.662 2°55.959 0.8 278 16.7 101780 100
2009-06-29 07:10:54 51°13.662 2°55.959 1.2 265 16.7 101780 100
2009-06-29 07:10:59 51°13.662 2°55.959 0.9 285 16.7 101780 100
2009-06-29 07:11:04 51°13.662 2°55.959 1.1 265 16.7 101780 100
2009-06-29 07:11:09 51°13.662 2°55.959 1.1 280 16.7 101780 100
2009-06-29 07:11:14 51°13.662 2°55.959 1.4 267 16.7 101780 100
2009-06-29 07:11:19 51°13.662 2°55.959 0.7 280 16.7 101780 100
2009-06-29 07:11:24 51°13.662 2°55.959 1 254 16.7 101780 100
2009-06-29 07:11:29 51°13.662 2°55.959 1.5 254 16.7 101780 100
2009-06-29 07:11:34 51°13.662 2°55.959 1.5 254 16.7 101780 100
2009-06-29 07:11:39 51°13.662 2°55.959 1.5 286 16.7 101780 100
2009-06-29 07:11:44 51°13.662 2°55.959 1.6 254 16.7 101780 100
2009-06-29 07:11:49 51°13.662 2°55.959 1.4 281 16.7 101780 100
2009-06-29 07:11:54 51°13.662 2°55.959 1.6 253 16.7 101780 100
2009-06-29 07:11:59 51°13.662 2°55.959 1.6 283 16.7 101780 100
2009-06-29 07:12:04 51°13.662 2°55.959 1.6 253 16.7 101780 100
2009-06-29 07:12:09 51°13.662 2°55.959 1.4 281 16.8 101780 100
2009-06-29 07:12:14 51°13.662 2°55.959 1.1 253 16.8 101780 100
2009-06-29 07:12:19 51°13.663 2°55.959 1.2 253 16.8 101780 100
2009-06-29 07:12:24 51°13.663 2°55.959 1.2 253 16.8 101780 100
2009-06-29 07:12:29 51°13.663 2°55.959 1.3 253 16.7 101780 100
2009-06-29 07:12:34 51°13.663 2°55.959 0.9 253 16.7 101780 100
2009-06-29 07:12:38 51°13.663 2°55.959 0.8 277 16.8 101790 94
2009-06-29 07:12:44 51°13.663 2°55.959 0.7 253 16.8 101790 94
2009-06-29 07:12:49 51°13.663 2°55.959 0.5 280 16.8 101780 93
2009-06-29 07:12:54 51°13.663 2°55.959 1.3 253 16.8 101780 93
2009-06-29 07:12:59 51°13.663 2°55.959 1.1 282 16.8 101790 93
2009-06-29 07:13:04 51°13.663 2°55.959 1.3 253 16.8 101790 93
2009-06-29 07:13:09 51°13.663 2°55.959 1.2 282 16.8 101780 93
2009-06-29 07:13:14 51°13.663 2°55.959 1 253 16.8 101780 93
2009-06-29 07:13:19 51°13.663 2°55.959 1.3 286 16.8 101780 92
2009-06-29 07:13:24 51°13.663 2°55.959 1.2 246 16.8 101780 92
2009-06-29 07:13:29 51°13.663 2°55.959 1.2 24 16.8 101780 93
2009-06-29 07:13:34 51°13.663 2°55.959 1 246 16.8 101780 93
2009-06-29 07:13:39 51°13.663 2°55.959 0.8 279 16.8 101780 93
2009-06-29 07:13:44 51°13.663 2°55.959 0.9 246 16.8 101780 93
2009-06-29 07:13:49 51°13.663 2°55.959 1.1 278 16.8 101780 93
2009-06-29 07:13:54 51°13.663 2°55.959 0.7 246 16.8 101780 93
2009-06-29 07:13:58 51°13.663 2°55.959 0.9 285 16.8 101780 93
2009-06-29 07:14:04 51°13.663 2°55.959 1 246 16.8 101780 93
2009-06-29 07:14:09 51°13.663 2°55.959 0.9 285 16.8 101780 92
2009-06-29 07:14:14 51°13.663 2°55.959 1 246 16.8 101780 92
2009-06-29 07:14:18 51°13.663 2°55.959 0.9 278 16.8 101780 94
2009-06-29 07:14:24 51°13.663 2°55.959 0.7 246 16.8 101780 94
2009-06-29 07:14:29 51°13.663 2°55.959 0.7 246 16.8 101780 93
2009-06-29 07:14:34 51°13.662 2°55.959 1.1 246 16.8 101780 93
2009-06-29 07:14:38 51°13.662 2°55.959 1 278 16.9 101780 93
2009-06-29 07:14:44 51°13.663 2°55.959 1.4 243 16.9 101780 93
2009-06-29 07:14:49 51°13.663 2°55.959 1.3 283 16.9 101790 93
2009-06-29 07:14:54 51°13.663 2°55.959 1.3 243 16.9 101790 93
2009-06-29 07:14:59 51°13.663 2°55.959 1.1 282 16.9 101780 93
2009-06-29 07:15:04 51°13.663 2°55.959 1.2 243 16.9 101780 93
2009-06-29 07:15:09 51°13.663 2°55.959 1.1 280 16.8 101780 94
2009-06-29 07:15:14 51°13.663 2°55.959 1 243 16.8 101780 94
2009-06-29 07:15:18 51°13.663 2°55.959 1.1 281 16.9 101790 92
2009-06-29 07:15:24 51°13.663 2°55.959 1 243 16.9 101790 92
2009-06-29 07:15:29 51°13.663 2°55.959 1 25 16.8 101790 93
2009-06-29 07:15:34 51°13.663 2°55.959 0.7 243 16.8 101790 93
2009-06-29 07:15:38 51°13.663 2°55.959 1.1 281 16.8 101780 93
2009-06-29 07:15:44 51°13.663 2°55.959 1.3 243 16.8 101780 93
2009-06-29 07:15:49 51°13.663 2°55.959 1.3 284 16.8 101780 93
2009-06-29 07:15:54 51°13.663 2°55.959 1.2 243 16.8 101780 93
2009-06-29 07:15:59 51°13.663 2°55.959 1 282 16.8 101780 93
2009-06-29 07:16:04 51°13.663 2°55.959 1.1 243 16.8 101780 93
2009-06-29 07:16:09 51°13.663 2°55.959 1.3 281 16.8 101780 94
2009-06-29 07:16:14 51°13.663 2°55.959 1 242 16.8 101780 94
2009-06-29 07:16:19 51°13.663 2°55.959 0.9 277 16.8 101780 92
2009-06-29 07:16:24 51°13.663 2°55.959 0.8 242 16.8 101780 92
2009-06-29 07:16:29 51°13.663 2°55.959 0.8 23 16.8 101780 92
2009-06-29 07:16:34 51°13.663 2°55.96 0.9 242 16.8 101780 92
2009-06-29 07:16:39 51°13.663 2°55.96 0.9 285 16.8 101780 92
2009-06-29 07:16:44 51°13.663 2°55.96 0.7 242 16.8 101780 92
2009-06-29 07:16:49 51°13.663 2°55.959 0.7 286 16.8 101780 92
2009-06-29 07:16:54 51°13.663 2°55.96 1 242 16.8 101780 92
2009-06-29 07:16:58 51°13.663 2°55.96 0.9 278 16.8 101780 92
2009-06-29 07:17:04 51°13.663 2°55.96 0.8 242 16.8 101780 92
2009-06-29 07:17:09 51°13.663 2°55.96 0.9 278 16.8 101780 92
2009-06-29 07:17:14 51°13.663 2°55.96 0.7 242 16.8 101780 92
2009-06-29 07:17:18 51°13.663 2°55.96 0.6 284 16.8 101780 92
2009-06-29 07:17:24 51°13.663 2°55.96 0.5 242 16.8 101780 92
2009-06-29 07:17:29 51°13.663 2°55.96 0.3 242 16.8 101780 92
2009-06-29 07:17:34 51°13.663 2°55.96 0.1 242 16.8 101780 92
2009-06-29 07:17:39 51°13.663 2°55.96 0.6 280 16.8 101780 92
2009-06-29 07:17:44 51°13.663 2°55.959 0.9 242 16.8 101780 92
2009-06-29 07:17:49 51°13.663 2°55.959 1.1 284 16.8 101780 92
2009-06-29 07:17:54 51°13.663 2°55.96 1.2 242 16.8 101780 92
2009-06-29 07:17:59 51°13.663 2°55.96 0.9 281 16.8 101780 92
2009-06-29 07:18:04 51°13.663 2°55.959 0.9 242 16.8 101780 92
2009-06-29 07:18:09 51°13.663 2°55.96 0.5 281 16.8 101780 92
2009-06-29 07:18:14 51°13.664 2°55.959 0.5 242 16.8 101780 92
2009-06-29 07:18:19 51°13.664 2°55.959 0.4 281 16.8 101780 92
2009-06-29 07:18:24 51°13.664 2°55.959 0.5 242 16.8 101780 92
2009-06-29 07:18:29 51°13.664 2°55.96 0.5 27 16.8 101790 100
2009-06-29 07:18:34 51°13.664 2°55.96 0.6 242 16.8 101790 100
2009-06-29 07:18:38 51°13.664 2°55.96 0.7 282 16.8 101790 94
2009-06-29 07:18:44 51°13.664 2°55.96 0.7 242 16.8 101790 94
2009-06-29 07:18:49 51°13.664 2°55.96 0.5 281 16.8 101790 100
2009-06-29 07:18:54 51°13.664 2°55.96 0.5 242 16.8 101790 100
2009-06-29 07:18:59 51°13.665 2°55.96 0.8 277 16.8 101790 100
2009-06-29 07:19:04 51°13.665 2°55.96 0.8 242 16.8 101790 100
2009-06-29 07:19:09 51°13.665 2°55.96 0.9 281 16.9 101790 100
2009-06-29 07:19:14 51°13.665 2°55.96 0.9 242 16.9 101790 100
2009-06-29 07:19:18 51°13.665 2°55.96 0.8 277 16.8 101780 100
2009-06-29 07:19:24 51°13.665 2°55.96 1 242 16.8 101780 100
2009-06-29 07:19:29 51°13.665 2°55.96 1.1 26 16.9 101790 100
2009-06-29 07:19:34 51°13.665 2°55.96 1 242 16.9 101790 100
2009-06-29 07:19:38 51°13.665 2°55.96 0.8 285 16.9 101790 100
2009-06-29 07:19:44 51°13.665 2°55.96 0.9 242 16.9 101790 100
2009-06-29 07:19:49 51°13.665 2°55.96 1.2 280 16.9 101790 100
2009-06-29 07:19:54 51°13.665 2°55.96 1.1 242 16.9 101790 100
2009-06-29 07:19:59 51°13.665 2°55.96 1 277 16.9 101790 100
2009-06-29 07:20:04 51°13.665 2°55.96 1 242 16.9 101790 100
2009-06-29 07:20:09 51°13.665 2°55.96 1.5 279 16.9 101790 100
2009-06-29 07:20:14 51°13.665 2°55.96 1.2 34 16.9 101790 100
2009-06-29 07:20:19 51°13.665 2°55.96 1.5 277 17 101790 100
2009-06-29 07:20:24 51°13.664 2°55.96 1.2 326 17 101790 100
2009-06-29 07:20:29 51°13.665 2°55.96 1.2 326 17 101790 100
2009-06-29 07:20:34 51°13.664 2°55.96 0.9 326 17 101790 100
2009-06-29 07:20:39 51°13.664 2°55.96 0.8 279 17 101790 100
2009-06-29 07:20:44 51°13.664 2°55.96 0.9 326 17 101790 100
2009-06-29 07:20:49 51°13.664 2°55.96 1 279 17 101790 100
2009-06-29 07:20:54 51°13.664 2°55.96 1.4 326 17 101790 100
2009-06-29 07:20:58 51°13.664 2°55.96 1.5 279 17 101790 100
2009-06-29 07:21:04 51°13.664 2°55.96 1.4 317 17 101790 100
2009-06-29 07:21:09 51°13.664 2°55.96 1.1 280 17 101790 100
2009-06-29 07:21:14 51°13.664 2°55.96 1.3 318 17 101790 100
2009-06-29 07:21:19 51°13.664 2°55.96 1.4 279 17 101790 100
2009-06-29 07:21:24 51°13.664 2°55.96 1.3 321 17 101790 100
2009-06-29 07:21:29 51°13.664 2°55.96 1.4 326 17 101790 100
2009-06-29 07:21:34 51°13.664 2°55.96 1.1 327 17 101790 100
2009-06-29 07:21:39 51°13.664 2°55.959 1.1 327 17 101790 100
2009-06-29 07:21:44 51°13.664 2°55.959 1.3 326 17 101790 100
2009-06-29 07:21:49 51°13.664 2°55.959 1.4 278 17 101790 100
2009-06-29 07:21:54 51°13.664 2°55.959 1.2 326 17 101790 100
2009-06-29 07:21:59 51°13.664 2°55.959 1.3 326 17 101790 100
2009-06-29 07:22:04 51°13.664 2°55.959 0.8 326 17 101790 100
2009-06-29 07:22:09 51°13.664 2°55.959 1 277 17 101790 100
2009-06-29 07:22:14 51°13.664 2°55.959 1.2 329 17 101790 100
2009-06-29 07:22:18 51°13.664 2°55.959 1.4 281 17 101790 100
2009-06-29 07:22:24 51°13.663 2°55.959 1.8 321 17 101790 100
2009-06-29 07:22:29 51°13.663 2°55.959 1.5 321 17.1 101790 100
2009-06-29 07:22:34 51°13.663 2°55.959 1.5 37 17.1 101790 100
2009-06-29 07:22:39 51°13.663 2°55.959 0.9 277 17.1 101790 100
2009-06-29 07:22:44 51°13.663 2°55.959 1.1 34 17.1 101790 100
2009-06-29 07:22:49 51°13.663 2°55.959 1.1 285 17.1 101790 100
2009-06-29 07:22:54 51°13.663 2°55.959 1.1 38 17.1 101790 100
2009-06-29 07:22:59 51°13.663 2°55.959 0.9 279 17.1 101790 100
2009-06-29 07:23:04 51°13.663 2°55.959 0.7 37 17.1 101790 100
2009-06-29 07:23:09 51°13.663 2°55.959 0.9 285 17.1 101790 100
2009-06-29 07:23:14 51°13.663 2°55.959 1 34 17.1 101790 100
2009-06-29 07:23:19 51°13.663 2°55.959 1.5 281 17.1 101790 100
2009-06-29 07:23:24 51°13.663 2°55.959 1.3 31 17.1 101790 100
2009-06-29 07:23:29 51°13.663 2°55.959 1.2 22 17.2 101790 100
2009-06-29 07:23:34 51°13.663 2°55.96 2.3 242 17.2 101790 100
2009-06-29 07:23:38 51°13.663 2°55.959 2.5 280 17.2 101790 100
2009-06-29 07:23:44 51°13.663 2°55.96 2.5 243 17.2 101790 100
2009-06-29 07:23:49 51°13.663 2°55.96 1.5 277 17.1 101790 100
2009-06-29 07:23:54 51°13.663 2°55.96 1.5 247 17.1 101790 100
2009-06-29 07:23:58 51°13.663 2°55.96 1.6 282 17.2 101790 100
2009-06-29 07:24:04 51°13.663 2°55.96 1.7 257 17.2 101790 100
2009-06-29 07:24:09 51°13.663 2°55.959 1.6 286 17.2 101790 100
2009-06-29 07:24:14 51°13.663 2°55.959 1.5 258 17.2 101790 100
2009-06-29 07:24:19 51°13.663 2°55.959 1.9 278 17.2 101790 100
2009-06-29 07:24:24 51°13.663 2°55.959 1.6 258 17.2 101790 100
2009-06-29 07:24:29 51°13.663 2°55.959 1.6 258 17.2 101790 100
2009-06-29 07:24:34 51°13.663 2°55.959 1.8 258 17.2 101790 100
2009-06-29 07:24:39 51°13.663 2°55.959 2 286 17.2 101790 100
2009-06-29 07:24:44 51°13.663 2°55.959 1.9 258 17.2 101790 100
2009-06-29 07:24:49 51°13.663 2°55.959 2.1 278 17.2 101790 100
2009-06-29 07:24:54 51°13.663 2°55.959 2.5 258 17.2 101790 100
2009-06-29 07:24:59 51°13.663 2°55.959 1.7 279 17.2 101790 100
2009-06-29 07:25:04 51°13.663 2°55.959 2.1 258 17.2 101790 100
2009-06-29 07:25:09 51°13.663 2°55.959 2 278 17.2 101790 100
2009-06-29 07:25:14 51°13.663 2°55.959 1.6 258 17.2 101790 100
2009-06-29 07:25:19 51°13.663 2°55.959 1.7 282 17.2 101790 100
2009-06-29 07:25:24 51°13.663 2°55.959 1.7 258 17.2 101790 100
2009-06-29 07:25:29 51°13.663 2°55.959 1.8 258 17.2 101790 100
2009-06-29 07:25:34 51°13.663 2°55.959 2.2 244 17.2 101790 100
2009-06-29 07:25:39 51°13.663 2°55.959 2.5 284 17.2 101790 100
2009-06-29 07:25:44 51°13.663 2°55.96 1.3 249 17.2 101790 100
2009-06-29 07:25:49 51°13.663 2°55.96 1.4 279 17.2 101790 100
2009-06-29 07:25:54 51°13.664 2°55.96 1.3 246 17.2 101790 100
2009-06-29 07:25:59 51°13.664 2°55.96 1.8 281 17.2 101790 100
2009-06-29 07:26:04 51°13.664 2°55.96 1.6 249 17.2 101790 100
2009-06-29 07:26:09 51°13.664 2°55.96 1.5 277 17.2 101790 100
2009-06-29 07:26:14 51°13.664 2°55.96 1.3 246 17.2 101790 100
2009-06-29 07:26:18 51°13.664 2°55.96 1.2 281 17.2 101790 100
2009-06-29 07:26:24 51°13.664 2°55.961 1.3 246 17.2 101790 100
2009-06-29 07:26:29 51°13.664 2°55.961 1.4 246 17.2 101790 100
2009-06-29 07:26:34 51°13.664 2°55.961 0.8 252 17.2 101790 100
2009-06-29 07:26:38 51°13.664 2°55.961 1 283 17.2 101790 100
2009-06-29 07:26:44 51°13.664 2°55.961 1.1 259 17.2 101790 100
2009-06-29 07:26:49 51°13.664 2°55.961 0.9 280 17.2 101790 100
2009-06-29 07:26:54 51°13.664 2°55.961 1.5 243 17.2 101790 100
2009-06-29 07:26:59 51°13.664 2°55.961 1.2 277 17.3 101790 100
2009-06-29 07:27:04 51°13.664 2°55.961 1.5 246 17.3 101790 100
2009-06-29 07:27:09 51°13.663 2°55.961 1.6 280 17.3 101790 100
2009-06-29 07:27:14 51°13.663 2°55.96 1.4 246 17.3 101790 100
2009-06-29 07:27:18 51°13.663 2°55.961 2.1 281 17.3 101790 100
2009-06-29 07:27:24 51°13.663 2°55.961 2.2 248 17.3 101790 100
2009-06-29 07:27:29 51°13.663 2°55.961 2.3 248 17.3 101790 100
2009-06-29 07:27:34 51°13.663 2°55.96 1.9 242 17.3 101790 100
2009-06-29 07:27:39 51°13.663 2°55.96 1.8 279 17.3 101790 100
2009-06-29 07:27:44 51°13.663 2°55.96 1.6 246 17.3 101790 100
2009-06-29 07:27:49 51°13.663 2°55.96 2 286 17.3 101790 100
2009-06-29 07:27:54 51°13.663 2°55.96 2 246 17.3 101790 100
2009-06-29 07:27:59 51°13.663 2°55.96 2.4 282 17.3 101790 98
2009-06-29 07:28:04 51°13.663 2°55.96 2.1 248 17.3 101790 98
2009-06-29 07:28:10 51°13.663 2°55.96 2.2 285 17.3 101790 99
2009-06-29 07:28:14 51°13.663 2°55.96 1.8 249 17.3 101790 99
2009-06-29 07:28:18 51°13.662 2°55.96 1.7 285 17.3 101790 99
2009-06-29 07:28:25 51°13.662 2°55.96 1.2 251 17.3 101790 99
2009-06-29 07:28:29 51°13.662 2°55.96 1.4 251 17.3 101790 100
2009-06-29 07:28:34 51°13.662 2°55.96 1.4 251 17.3 101790 100
2009-06-29 07:28:38 51°13.662 2°55.96 0.7 282 17.3 101780 100
2009-06-29 07:28:45 51°13.662 2°55.96 0.7 251 17.3 101780 100
2009-06-29 07:28:50 51°13.662 2°55.96 1.2 276 17.3 101790 99
2009-06-29 07:28:54 51°13.662 2°55.96 0.8 251 17.3 101790 99
2009-06-29 07:28:58 51°13.662 2°55.96 1 277 17.3 101790 99
2009-06-29 07:29:04 51°13.662 2°55.96 0.8 241 17.3 101790 99
2009-06-29 07:29:10 51°13.662 2°55.96 0.6 278 17.3 101790 99
2009-06-29 07:29:15 51°13.662 2°55.96 0.7 241 17.3 101790 99
2009-06-29 07:29:19 51°13.663 2°55.96 0.8 285 17.3 101780 99
2009-06-29 07:29:25 51°13.663 2°55.96 1 241 17.3 101780 99
2009-06-29 07:29:29 51°13.663 2°55.96 1 24 17.3 101780 99
2009-06-29 07:29:35 51°13.663 2°55.959 1.3 247 17.3 101780 99
2009-06-29 07:29:39 51°13.663 2°55.959 1.8 284 17.3 101780 99
2009-06-29 07:29:44 51°13.663 2°55.959 2 248 17.3 101780 99
2009-06-29 07:29:50 51°13.663 2°55.959 1.9 247 17.3 101780 99
2009-06-29 07:29:55 51°13.663 2°55.959 1.6 249 17.3 101780 99
2009-06-29 07:29:59 51°13.663 2°55.959 2 278 17.4 101780 99
2009-06-29 07:30:04 51°13.663 2°55.959 1.7 246 17.4 101780 99
2009-06-29 07:30:09 51°13.663 2°55.959 1.7 281 17.4 101790 99
2009-06-29 07:30:14 51°13.663 2°55.959 1.6 247 17.4 101790 99
2009-06-29 07:30:19 51°13.663 2°55.959 1.7 284 17.4 101780 100
2009-06-29 07:30:23 51°13.663 2°55.959 1.7 247 17.4 101780 100
2009-06-29 07:30:29 51°13.663 2°55.959 1.5 247 17.4 101790 99
2009-06-29 07:30:34 51°13.663 2°55.959 1.6 246 17.4 101790 99
2009-06-29 07:30:39 51°13.663 2°55.959 2.2 277 17.4 101790 99
2009-06-29 07:30:44 51°13.662 2°55.959 2.2 247 17.4 101790 99
2009-06-29 07:30:49 51°13.662 2°55.959 2 284 17.4 101790 99
2009-06-29 07:30:54 51°13.662 2°55.959 2 247 17.4 101790 99
2009-06-29 07:30:59 51°13.662 2°55.959 1.9 284 17.3 101790 99
2009-06-29 07:31:04 51°13.662 2°55.959 2.1 253 17.3 101790 99
2009-06-29 07:31:09 51°13.662 2°55.959 1.8 282 17.4 101790 100
2009-06-29 07:31:14 51°13.662 2°55.959 2 248 17.4 101790 100
2009-06-29 07:31:19 51°13.662 2°55.959 1.7 281 17.3 101780 99
2009-06-29 07:31:24 51°13.662 2°55.959 1.5 248 17.3 101780 99
2009-06-29 07:31:29 51°13.663 2°55.959 1.5 21 17.3 101790 99
2009-06-29 07:31:34 51°13.663 2°55.959 1.5 247 17.3 101790 99
2009-06-29 07:31:39 51°13.663 2°55.959 1.8 283 17.3 101790 98
2009-06-29 07:31:44 51°13.663 2°55.959 1.5 242 17.3 101790 98
2009-06-29 07:31:49 51°13.663 2°55.959 1.2 280 17.3 101790 99
2009-06-29 07:31:54 51°13.662 2°55.959 1 242 17.3 101790 99
2009-06-29 07:31:59 51°13.662 2°55.959 1.1 280 17.3 101790 100
2009-06-29 07:32:04 51°13.662 2°55.959 1.1 243 17.3 101790 100
2009-06-29 07:32:09 51°13.662 2°55.959 1.5 286 17.3 101790 99
2009-06-29 07:32:14 51°13.662 2°55.959 1.3 250 17.3 101790 99
2009-06-29 07:32:19 51°13.662 2°55.959 1.2 285 17.4 101790 99
2009-06-29 07:32:24 51°13.662 2°55.959 1 249 17.4 101790 99
2009-06-29 07:32:29 51°13.662 2°55.959 1 250 17.4 101790 99
2009-06-29 07:32:34 51°13.662 2°55.959 1.2 251 17.4 101790 99
2009-06-29 07:32:39 51°13.662 2°55.959 0.8 285 17.4 101790 100
2009-06-29 07:32:44 51°13.662 2°55.959 0.6 250 17.4 101790 100
2009-06-29 07:32:49 51°13.662 2°55.959 0.5 281 17.4 101790 100
2009-06-29 07:32:54 51°13.662 2°55.959 0.4 250 17.4 101790 100
2009-06-29 07:32:59 51°13.662 2°55.959 0.1 282 17.4 101790 100
2009-06-29 07:33:04 51°13.661 2°55.959 0.1 250 17.4 101790 100
2009-06-29 07:33:09 51°13.662 2°55.959 -999 281 17.4 101790 100
2009-06-29 07:33:14 51°13.661 2°55.959 -999 251 17.4 101790 100
2009-06-29 07:33:19 51°13.661 2°55.959 -999 281 17.4 101790 100
2009-06-29 07:33:24 51°13.661 2°55.959 -999 251 17.4 101790 100
2009-06-29 07:33:30 51°13.661 2°55.959 -999 251 17.5 101790 98
2009-06-29 07:33:34 51°13.661 2°55.959 -999 251 17.5 101790 98
2009-06-29 07:33:39 51°13.661 2°55.959 -999 281 17.5 101790 97
2009-06-29 07:33:44 51°13.661 2°55.959 -999 251 17.5 101790 97
2009-06-29 07:33:49 51°13.661 2°55.959 -999 281 17.5 101800 98
2009-06-29 07:33:54 51°13.661 2°55.959 -999 251 17.5 101800 98
2009-06-29 07:33:59 51°13.661 2°55.959 -999 281 17.5 101800 98
2009-06-29 07:34:03 51°13.661 2°55.959 -999 251 17.5 101800 98
2009-06-29 07:34:09 51°13.661 2°55.959 -999 281 17.5 101790 99
2009-06-29 07:34:14 51°13.661 2°55.959 -999 251 17.5 101790 99
2009-06-29 07:34:19 51°13.661 2°55.959 -999 281 17.5 101800 99
2009-06-29 07:34:24 51°13.661 2°55.959 -999 251 17.5 101800 99
2009-06-29 07:34:29 51°13.661 2°55.959 -999 251 17.5 101800 99
2009-06-29 07:34:34 51°13.661 2°55.96 0.3 251 17.5 101800 99
2009-06-29 07:34:39 51°13.661 2°55.959 0.2 281 17.5 101800 99
2009-06-29 07:34:44 51°13.661 2°55.959 0.1 248 17.5 101800 99
2009-06-29 07:34:49 51°13.661 2°55.959 -999 281 17.5 101800 99
2009-06-29 07:34:54 51°13.661 2°55.959 -999 330 17.5 101800 99
2009-06-29 07:34:59 51°13.661 2°55.959 1.1 281 17.5 101800 99
2009-06-29 07:35:04 51°13.661 2°55.96 1.3 335 17.5 101800 99
2009-06-29 07:35:09 51°13.661 2°55.96 1.4 281 17.6 101800 99
2009-06-29 07:35:14 51°13.661 2°55.96 1 335 17.6 101800 99
2009-06-29 07:35:19 51°13.661 2°55.96 1.1 282 17.6 101800 100
2009-06-29 07:35:24 51°13.661 2°55.96 1.2 336 17.6 101800 100
2009-06-29 07:35:29 51°13.662 2°55.96 1.1 335 17.5 101800 99
2009-06-29 07:35:34 51°13.662 2°55.96 0.9 336 17.5 101800 99
2009-06-29 07:35:39 51°13.662 2°55.96 1.3 279 17.5 101800 100
2009-06-29 07:35:44 51°13.662 2°55.96 1.5 346 17.5 101800 100
2009-06-29 07:35:49 51°13.662 2°55.96 1.5 282 17.5 101800 99
2009-06-29 07:35:54 51°13.661 2°55.96 1.6 346 17.5 101800 99
2009-06-29 07:35:59 51°13.661 2°55.96 1.4 282 17.5 101800 99
2009-06-29 07:36:04 51°13.661 2°55.96 1.5 346 17.5 101800 99
2009-06-29 07:36:09 51°13.661 2°55.96 1.8 281 17.5 101800 99
2009-06-29 07:36:14 51°13.661 2°55.96 1.4 346 17.5 101800 99
2009-06-29 07:36:19 51°13.662 2°55.96 2.3 278 17.5 101810 99
2009-06-29 07:36:24 51°13.662 2°55.96 2.2 333 17.5 101810 99
2009-06-29 07:36:29 51°13.662 2°55.96 2.1 333 17.4 101800 99
2009-06-29 07:36:34 51°13.662 2°55.96 1.7 338 17.4 101800 99
2009-06-29 07:36:39 51°13.662 2°55.96 1.7 281 17.4 101810 99
2009-06-29 07:36:44 51°13.662 2°55.96 1.5 338 17.4 101810 99
2009-06-29 07:36:49 51°13.661 2°55.96 1.4 282 17.4 101800 100
2009-06-29 07:36:54 51°13.661 2°55.96 1.5 338 17.4 101800 100
2009-06-29 07:36:59 51°13.662 2°55.959 1.5 277 17.4 101810 99
2009-06-29 07:37:04 51°13.662 2°55.959 1.5 338 17.4 101810 99
2009-06-29 07:37:09 51°13.662 2°55.959 1.7 282 17.4 101810 100
2009-06-29 07:37:14 51°13.662 2°55.959 1.8 338 17.4 101810 100
2009-06-29 07:37:19 51°13.662 2°55.959 1.7 281 17.4 101810 99
2009-06-29 07:37:23 51°13.662 2°55.959 1.7 339 17.4 101810 99
2009-06-29 07:37:29 51°13.662 2°55.959 1.9 339 17.4 101810 99
2009-06-29 07:37:34 51°13.662 2°55.959 1.7 339 17.4 101810 99
2009-06-29 07:37:39 51°13.662 2°55.959 1.7 277 17.4 101810 100
2009-06-29 07:37:44 51°13.662 2°55.959 1.5 339 17.4 101810 100
2009-06-29 07:37:49 51°13.662 2°55.96 1.6 279 17.4 101810 100
2009-06-29 07:37:54 51°13.662 2°55.96 1.4 340 17.4 101810 100
2009-06-29 07:37:59 51°13.662 2°55.96 1.3 281 17.4 101810 100
2009-06-29 07:38:04 51°13.662 2°55.96 1.4 339 17.4 101810 100
2009-06-29 07:38:09 51°13.662 2°55.96 1.7 278 17.3 101810 100
2009-06-29 07:38:14 51°13.662 2°55.96 1.3 345 17.3 101810 100
2009-06-29 07:38:19 51°13.662 2°55.96 1.4 280 17.3 101810 100
2009-06-29 07:38:24 51°13.662 2°55.96 1.6 345 17.3 101810 100
2009-06-29 07:38:29 51°13.662 2°55.961 1.5 345 17.3 101810 100
2009-06-29 07:38:34 51°13.662 2°55.961 1.5 345 17.3 101810 100
2009-06-29 07:38:39 51°13.662 2°55.961 1.4 345 17.2 101810 100
2009-06-29 07:38:44 51°13.661 2°55.961 1.3 342 17.2 101810 100
2009-06-29 07:38:49 51°13.661 2°55.961 1.2 281 17.2 101810 100
2009-06-29 07:38:54 51°13.661 2°55.961 1 342 17.2 101810 100
2009-06-29 07:38:59 51°13.662 2°55.961 0.9 285 17.2 101810 99
2009-06-29 07:39:04 51°13.662 2°55.961 1 345 17.2 101810 99
2009-06-29 07:39:09 51°13.662 2°55.961 0.8 277 17.2 101810 99
2009-06-29 07:39:15 51°13.662 2°55.961 0.9 346 17.2 101810 99
2009-06-29 07:39:19 51°13.662 2°55.961 1.2 345 17.2 101810 99
2009-06-29 07:39:24 51°13.662 2°55.961 1 345 17.2 101810 99
2009-06-29 07:39:29 51°13.662 2°55.961 1 346 17.2 101810 99
2009-06-29 07:39:34 51°13.662 2°55.961 1.2 346 17.2 101810 99
2009-06-29 07:39:39 51°13.662 2°55.961 1.2 282 17.2 101810 99
2009-06-29 07:39:44 51°13.661 2°55.961 1.2 345 17.2 101810 99
2009-06-29 07:39:49 51°13.662 2°55.961 1.5 286 17.2 101810 99
2009-06-29 07:39:54 51°13.662 2°55.961 1.6 341 17.2 101810 99
2009-06-29 07:39:59 51°13.662 2°55.961 1.6 277 17.2 101810 98
2009-06-29 07:40:03 51°13.662 2°55.961 1.4 341 17.2 101810 98
2009-06-29 07:40:09 51°13.662 2°55.961 1.3 281 17.1 101810 99
2009-06-29 07:40:14 51°13.662 2°55.961 1.4 341 17.1 101810 99
2009-06-29 07:40:19 51°13.662 2°55.961 1.5 279 17.1 101810 99
2009-06-29 07:40:24 51°13.662 2°55.961 1.7 340 17.1 101810 99
2009-06-29 07:40:29 51°13.662 2°55.961 1.6 340 17.2 101810 98
2009-06-29 07:40:34 51°13.662 2°55.961 1.4 340 17.2 101810 98
2009-06-29 07:40:39 51°13.662 2°55.961 1.2 280 17.2 101810 99
2009-06-29 07:40:44 51°13.663 2°55.96 1.2 341 17.2 101810 99
2009-06-29 07:40:49 51°13.664 2°55.96 1.2 282 17.2 101810 99
2009-06-29 07:40:54 51°13.662 2°55.961 1.1 341 17.2 101810 99
2009-06-29 07:40:59 51°13.66 2°55.962 1.1 277 17.3 101810 98
2009-06-29 07:41:04 51°13.66 2°55.962 0.8 341 17.3 101810 98
2009-06-29 07:41:09 51°13.66 2°55.962 0.8 285 17.3 101810 99
2009-06-29 07:41:14 51°13.66 2°55.962 0.9 341 17.3 101810 99
2009-06-29 07:41:19 51°13.66 2°55.962 0.9 285 17.2 101810 99
2009-06-29 07:41:24 51°13.66 2°55.962 0.8 341 17.2 101810 99
2009-06-29 07:41:29 51°13.66 2°55.961 0.8 341 17.2 101810 99
2009-06-29 07:41:34 51°13.661 2°55.961 0.8 341 17.2 101810 99
2009-06-29 07:41:39 51°13.661 2°55.961 0.6 282 17.2 101810 99
2009-06-29 07:41:44 51°13.661 2°55.961 0.5 341 17.2 101810 99
2009-06-29 07:41:49 51°13.661 2°55.961 0.4 285 17.2 101810 99
2009-06-29 07:41:54 51°13.661 2°55.961 0.6 341 17.2 101810 99
2009-06-29 07:41:59 51°13.661 2°55.961 0.6 280 17.2 101810 99
2009-06-29 07:42:03 51°13.661 2°55.961 0.6 341 17.2 101810 99
2009-06-29 07:42:09 51°13.661 2°55.961 0.6 281 17.2 101810 99
2009-06-29 07:42:14 51°13.661 2°55.961 0.7 341 17.2 101810 99
2009-06-29 07:42:19 51°13.662 2°55.961 0.9 285 17.2 101810 99
2009-06-29 07:42:24 51°13.662 2°55.96 0.8 341 17.2 101810 99
2009-06-29 07:42:29 51°13.663 2°55.96 0.6 341 17.2 101810 99